Wind_Speed
43 42 41 41 40 40 40 40 40 40 39 38 38 39 39 39 38 37 37 36 35 35 36 38 39 40 41 42 42 42 41 42 43 45 47 52 57 59 59 58 58 57
46 46 45 45 44 43 43 43 43 43 42 42 41 41 41 41 41 40 39 38 37 36 36 37 39 40 42 43 43 43 43 42 43 44 46 49 52 56 58 58 58 60
48 48 48 47 47 47 46 46 46 45 45 45 44 44 43 43 44 43 43 42 41 40 39 38 39 40 42 44 45 45 45 45 45 45 45 47 50 53 56 58 58 60
50 49 49 48 48 48 48 49 49 48 47 47 47 47 47 47 47 47 47 47 46 45 44 42 41 41 42 43 45 46 47 47 47 47 46 47 49 51 54 56 58 59
52 51 50 50 49 49 49 50 50 50 50 50 50 50 50 50 50 50 50 50 50 50 49 48 46 44 43 43 45 46 47 48 48 48 48 49 50 51 53 55 57 59
53 52 52 52 52 51 52 52 52 52 52 52 53 54 54 54 54 53 53 53 53 52 52 52 51 49 48 46 46 46 47 48 49 49 49 50 51 52 53 55 57 59
54 53 53 53 53 53 53 54 54 54 54 55 56 56 57 57 57 57 57 56 55 55 54 54 54 53 52 51 50 49 48 48 49 49 50 50 52 53 53 54 57 59
56 56 55 55 56 55 54 55 56 56 57 57 58 58 58 59 59 59 59 59 59 58 57 56 56 56 56 55 54 53 52 51 51 50 50 51 51 53 55 55 56 57
59 59 59 59 58 56 56 58 59 60 59 58 58 60 61 61 61 61 61 61 61 61 60 60 59 59 58 58 58 57 57 56 55 53 52 52 52 53 54 56 56 57
62 62 63 63 61 59 59 61 62 62 63 62 62 62 61 62 63 64 64 63 63 62 62 63 63 63 62 61 61 60 60 60 59 58 57 55 55 55 56 56 57 58
62 63 62 63 64 64 64 65 64 63 64 65 66 65 62 63 64 64 64 64 65 65 66 66 66 66 65 65 64 63 63 62 62 62 61 61 59 59 59 59 59 59
60 59 57 59 63 65 65 66 64 63 64 67 68 68 66 65 65 65 64 64 66 68 70 70 69 68 67 67 67 67 66 65 65 64 64 64 64 64 63 63 63 63
58 56 54 58 62 63 63 64 63 64 67 69 68 69 67 66 67 67 66 66 68 69 70 71 71 71 71 70 70 70 70 69 68 68 67 67 68 68 68 68 67 67
59 57 57 60 62 62 62 62 62 63 66 67 68 68 66 64 65 66 66 66 69 72 71 70 71 72 72 73 73 72 72 72 72 71 70 70 71 70 71 71 71 71
61 60 60 60 61 61 61 61 62 63 64 65 66 66 65 65 65 65 65 66 69 71 71 71 73 74 74 74 75 75 75 74 74 74 73 73 73 74 74 74 74 75
65 64 63 62 62 62 62 62 63 64 64 63 62 62 64 66 67 67 66 66 67 69 69 70 73 76 77 77 78 78 77 77 77 76 76 76 76 76 77 77 78 78
68 67 66 65 65 64 64 65 66 66 66 64 62 62 63 64 65 67 66 63 64 67 69 71 71 73 77 79 79 79 79 80 80 80 80 80 79 79 79 80 81 80
70 70 69 68 68 67 67 68 68 69 69 69 66 65 65 64 66 68 68 67 68 70 71 71 70 72 76 78 77 78 79 81 82 83 84 84 83 83 83 83 83 82
72 72 72 71 71 71 70 70 71 71 72 72 71 69 67 67 68 70 70 71 72 73 72 70 70 73 75 75 75 76 77 79 82 84 85 86 85 85 86 87 86 85
74 74 74 74 74 74 73 73 73 74 75 75 74 73 71 70 70 71 72 72 73 73 72 71 72 74 75 75 76 76 76 79 81 82 84 85 85 85 87 88 89 89
76 76 76 75 75 75 75 75 75 76 76 77 77 76 74 73 72 73 73 73 73 72 71 71 73 75 75 75 76 76 78 79 81 82 83 84 83 83 85 87 89 90
79 78 78 78 78 77 76 76 76 76 77 78 78 78 77 75 75 75 74 74 73 72 71 72 74 74 74 74 75 76 78 80 81 82 83 83 82 82 83 85 86 87
81 81 80 81 81 81 79 78 77 77 77 78 78 78 78 77 76 75 74 74 73 72 72 73 73 72 72 73 74 75 77 80 82 83 83 82 82 82 83 84 84 85
82 82 82 82 82 82 82 80 79 78 78 79 79 79 79 79 77 75 74 74 74 74 74 73 73 72 72 73 73 74 76 79 82 83 84 83 82 82 83 83 83 85
84 84 83 83 83 83 83 82 81 80 79 79 79 79 80 80 78 75 75 76 76 76 74 74 73 72 73 73 74 75 76 78 80 83 84 83 83 83 83 83 84 85
84 84 84 83 83 83 83 82 82 81 80 80 80 80 81 81 78 75 77 78 78 76 74 73 74 74 74 75 75 76 77 77 79 82 83 84 83 84 84 83 84 84
Wind_Direction
256 256 256 255 254 253 254 254 254 254 253 253 252 251 251 250 248 248 248 248 248 247 245 243 241 238 237 237 236 234 232 233 233 234 234 234 233 233 232 229 227 227
255 255 255 255 255 254 254 254 255 255 255 254 254 253 253 252 251 250 249 248 248 247 247 246 244 241 239 238 238 237 235 233 233 233 234 235 235 236 236 234 230 229
254 254 254 255 255 254 254 254 254 255 255 256 256 255 254 253 253 252 251 249 248 247 247 247 246 244 242 241 240 240 239 237 235 233 233 234 235 236 237 238 236 233
253 253 254 254 255 254 254 254 254 254 255 255 256 256 255 254 253 252 251 250 249 248 247 246 246 245 244 243 242 242 243 242 240 237 234 233 234 235 237 238 238 238
252 252 253 253 254 254 254 255 255 255 255 255 255 255 255 254 254 253 252 251 250 249 248 247 246 245 245 244 244 244 244 244 244 243 239 236 233 234 235 236 238 239
253 253 253 253 253 253 253 253 254 255 255 256 255 255 255 254 254 253 252 252 251 250 250 249 247 246 245 245 244 245 245 245 246 246 244 241 238 235 235 236 237 238
256 256 255 254 253 253 253 254 254 253 253 254 255 255 254 254 254 253 253 252 252 251 250 250 249 248 247 246 245 245 245 245 245 246 246 246 243 240 237 237 237 237
258 257 255 254 253 253 253 254 254 254 252 251 252 254 254 254 254 254 254 253 253 252 252 251 250 249 248 247 246 245 245 245 245 245 246 247 247 244 241 240 239 239
257 257 256 255 255 254 253 253 254 255 255 253 252 253 253 253 254 254 254 254 254 253 253 253 252 251 250 249 248 247 246 246 245 245 245 246 247 247 246 244 243 242
256 257 257 257 256 255 254 253 253 254 255 256 256 255 254 254 254 254 254 254 255 255 254 253 252 251 250 249 248 248 248 247 247 246 246 245 246 247 247 246 245 245
255 255 256 258 257 255 254 254 254 253 254 255 255 254 255 256 257 257 256 254 254 255 254 253 252 251 251 250 249 248 248 248 248 248 247 247 246 246 246 246 246 246
255 254 254 256 257 255 254 254 254 253 253 254 253 253 254 256 258 258 258 257 256 254 253 253 252 252 252 251 250 249 248 248 248 248 248 248 248 247 247 246 246 246
257 254 249 250 253 253 252 252 252 251 252 253 254 254 255 255 255 255 257 258 259 256 253 252 252 252 252 251 251 250 249 248 248 248 248 249 249 249 249 248 247 247
258 256 251 249 251 252 252 251 250 250 251 251 251 252 252 253 254 254 254 256 257 257 255 254 254 252 251 251 251 250 250 250 249 248 248 248 249 250 250 250 250 249
260 259 257 255 255 255 255 253 251 250 251 252 252 252 250 249 249 251 251 251 253 256 257 257 257 255 253 253 252 251 250 250 250 250 249 249 249 249 250 251 251 251
261 260 260 259 259 259 259 258 256 253 252 252 253 253 251 250 249 249 249 249 251 253 254 255 256 256 256 255 253 253 252 251 251 251 250 250 249 249 249 250 250 251
262 262 262 262 261 261 261 261 261 259 257 254 252 251 252 252 251 250 249 250 251 253 254 253 254 256 257 257 256 256 255 254 253 252 251 250 250 249 249 249 249 249
263 264 264 263 263 262 262 262 261 261 261 258 255 253 252 252 252 251 250 250 251 254 255 255 255 255 256 258 259 259 258 257 255 254 253 251 250 250 250 249 249 249
262 263 263 263 263 263 262 262 262 262 262 262 260 257 255 254 254 254 252 251 252 253 254 255 256 256 257 258 259 259 259 259 257 256 255 253 252 251 251 251 250 249
263 262 263 263 263 263 263 262 262 262 262 262 262 261 259 258 256 255 255 254 253 253 254 254 255 256 257 258 258 259 259 259 259 258 257 256 254 253 253 253 252 251
266 265 265 264 263 262 262 262 262 262 262 263 263 262 262 261 260 258 257 256 255 254 254 254 253 254 256 257 258 259 259 259 259 259 258 258 256 255 255 255 254 254
268 267 267 266 265 264 263 262 262 262 262 263 263 263 263 262 261 261 260 260 259 257 256 255 254 254 255 256 257 258 259 260 260 259 259 259 259 258 257 257 256 256
267 267 267 267 267 266 265 264 263 263 263 263 263 264 264 263 262 262 262 262 261 260 259 258 257 256 256 256 257 257 258 259 260 260 260 259 259 259 259 258 257 257
267 267 267 267 267 267 267 267 266 265 264 264 264 264 264 264 263 263 263 263 262 262 261 260 259 258 258 257 257 257 258 259 259 260 259 259 259 259 259 258 258 258
266 266 266 266 266 267 267 267 266 266 265 265 264 264 264 264 264 264 264 264 263 262 262 262 261 260 259 259 258 257 257 257 258 259 260 260 260 260 259 259 258 257
265 265 266 265 265 266 266 266 266 265 265 265 264 264 264 264 264 264 264 264 263 263 263 262 262 262 261 260 258 257 257 257 257 259 260 260 260 260 260 260 259 258
Height
10563 10564 10565 10565 10566 10567 10567 10567 10568 10569 10570 10571 10573 10574 10575 10577 10579 10580 10581 10582 10583 10584 10585 10586 10588 10589 10590 10592 10594 10595 10596 10598 10599 10601 10602 10604 10605 10607 10609 10611 10613 10615
10557 10558 10559 10560 10561 10562 10563 10563 10564 10564 10566 10567 10568 10569 10571 10572 10574 10575 10576 10577 10578 10579 10580 10581 10583 10584 10586 10587 10588 10589 10591 10592 10593 10595 10596 10598 10599 10601 10603 10605 10607 10609
10551 10552 10554 10555 10556 10557 10558 10558 10559 10560 10561 10562 10563 10564 10565 10566 10567 10569 10570 10571 10572 10573 10574 10576 10577 10579 10581 10582 10583 10584 10585 10587 10588 10589 10591 10592 10594 10595 10596 10598 10600 10603
10545 10547 10548 10550 10551 10551 10552 10553 10554 10555 10556 10556 10557 10558 10558 10559 10560 10562 10563 10564 10565 10567 10568 10569 10571 10573 10575 10576 10578 10579 10580 10581 10583 10584 10586 10587 10588 10589 10590 10592 10593 10595
10539 10541 10543 10545 10545 10546 10547 10548 10548 10549 10550 10550 10550 10551 10551 10552 10553 10554 10556 10557 10558 10560 10561 10563 10564 10566 10568 10570 10571 10573 10574 10576 10578 10579 10581 10582 10582 10583 10584 10585 10587 10588
10533 10535 10537 10539 10539 10540 10541 10542 10542 10543 10543 10543 10543 10543 10544 10545 10545 10546 10548 10550 10551 10553 10554 10556 10558 10560 10561 10563 10565 10566 10568 10570 10572 10573 10575 10576 10577 10578 10579 10580 10581 10582
10527 10529 10531 10531 10532 10533 10534 10535 10535 10535 10535 10535 10535 10535 10536 10537 10537 10539 10540 10542 10544 10546 10547 10549 10551 10553 10555 10557 10558 10559 10561 10563 10565 10567 10568 10570 10571 10572 10573 10574 10575 10576
10519 10520 10522 10523 10523 10526 10528 10528 10526 10525 10525 10526 10527 10527 10528 10529 10530 10531 10532 10535 10537 10539 10541 10543 10545 10546 10548 10550 10551 10552 10554 10555 10557 10559 10561 10563 10565 10566 10567 10568 10569 10571
10510 10511 10513 10514 10515 10518 10521 10520 10519 10517 10516 10518 10519 10520 10521 10521 10523 10524 10525 10527 10529 10531 10534 10536 10537 10539 10540 10542 10544 10545 10546 10547 10549 10552 10554 10556 10558 10559 10560 10562 10563 10564
10502 10502 10504 10506 10507 10510 10511 10512 10513 10512 10511 10512 10512 10512 10514 10514 10515 10516 10518 10520 10522 10523 10526 10527 10528 10529 10531 10533 10536 10537 10539 10541 10542 10544 10546 10548 10550 10552 10553 10554 10555 10557
10493 10495 10497 10498 10499 10500 10502 10503 10504 10505 10505 10505 10505 10505 10507 10507 10507 10509 10511 10513 10515 10515 10515 10516 10517 10520 10522 10524 10527 10530 10532 10533 10535 10537 10539 10540 10542 10543 10545 10546 10547 10549
10482 10487 10492 10492 10490 10491 10494 10495 10495 10496 10498 10498 10498 10499 10500 10500 10501 10502 10503 10504 10505 10505 10505 10506 10508 10511 10514 10516 10518 10521 10523 10525 10527 10529 10531 10532 10533 10535 10536 10537 10539 10540
10472 10477 10483 10484 10482 10483 10486 10487 10487 10488 10488 10490 10491 10492 10492 10493 10493 10494 10496 10495 10494 10494 10495 10497 10501 10503 10504 10506 10508 10511 10513 10515 10517 10520 10522 10523 10524 10526 10527 10528 10530 10532
10463 10466 10471 10472 10472 10474 10476 10478 10479 10478 10478 10480 10482 10483 10484 10485 10485 10486 10488 10486 10484 10484 10486 10490 10492 10493 10494 10496 10498 10501 10503 10505 10508 10510 10512 10514 10515 10516 10517 10519 10521 10522
10455 10458 10460 10461 10463 10464 10466 10468 10469 10469 10470 10471 10472 10474 10475 10475 10476 10478 10479 10477 10475 10475 10479 10483 10482 10481 10484 10486 10487 10490 10494 10497 10499 10501 10503 10505 10505 10507 10508 10509 10510 10512
10446 10448 10451 10452 10454 10454 10455 10457 10458 10460 10462 10463 10464 10465 10465 10466 10468 10469 10470 10469 10468 10469 10472 10474 10472 10471 10473 10474 10474 10479 10485 10487 10489 10491 10493 10494 10495 10497 10498 10498 10499 10501
10437 10439 10441 10443 10445 10445 10446 10447 10447 10448 10451 10453 10455 10455 10456 10457 10458 10459 10461 10463 10462 10461 10463 10464 10464 10464 10462 10461 10465 10471 10475 10477 10478 10479 10481 10483 10484 10486 10487 10486 10488 10490
10428 10430 10431 10433 10434 10436 10437 10437 10437 10437 10438 10440 10443 10445 10447 10449 10449 10449 10452 10454 10454 10454 10454 10456 10458 10456 10453 10453 10457 10461 10463 10464 10465 10466 10468 10470 10473 10474 10475 10475 10477 10480
10419 10420 10421 10422 10423 10425 10426 10427 10427 10427 10427 10428 10430 10433 10436 10439 10439 10439 10442 10444 10445 10446 10447 10450 10451 10447 10445 10447 10448 10449 10451 10451 10451 10453 10455 10457 10461 10463 10463 10464 10466 10469
10409 10410 10411 10412 10413 10413 10414 10416 10416 10416 10416 10417 10419 10421 10424 10426 10428 10428 10430 10433 10435 10437 10440 10443 10442 10437 10436 10438 10439 10440 10441 10439 10439 10441 10443 10445 10450 10452 10451 10452 10454 10457
10396 10398 10399 10401 10401 10402 10403 10404 10405 10405 10405 10405 10407 10409 10411 10414 10415 10416 10418 10420 10423 10427 10431 10432 10430 10428 10428 10430 10430 10430 10429 10428 10429 10431 10431 10433 10438 10441 10440 10441 10443 10445
10382 10384 10385 10386 10387 10389 10390 10392 10393 10395 10394 10394 10395 10396 10398 10401 10403 10404 10406 10408 10411 10416 10420 10419 10417 10419 10421 10422 10421 10420 10418 10418 10418 10419 10420 10422 10426 10428 10428 10429 10431 10433
10370 10371 10372 10373 10373 10374 10376 10379 10381 10383 10383 10383 10384 10384 10385 10387 10390 10392 10395 10397 10399 10403 10406 10405 10406 10409 10411 10411 10411 10410 10409 10407 10406 10406 10408 10410 10413 10415 10416 10417 10419 10420
10359 10360 10361 10362 10362 10362 10363 10366 10368 10370 10371 10371 10372 10373 10372 10373 10377 10381 10385 10386 10387 10389 10391 10393 10395 10398 10399 10399 10400 10400 10398 10397 10395 10394 10395 10398 10400 10402 10403 10404 10406 10407
10346 10347 10348 10350 10351 10351 10352 10354 10355 10357 10358 10359 10360 10361 10360 10360 10365 10371 10373 10373 10373 10375 10378 10381 10383 10385 10386 10386 10387 10387 10386 10385 10384 10382 10383 10386 10389 10390 10390 10392 10393 10394
10334 10335 10336 10337 10338 10340 10341 10342 10343 10344 10345 10346 10347 10348 10348 10348 10354 10360 10360 10358 10359 10363 10367 10370 10372 10372 10372 10372 10372 10372 10373 10374 10374 10372 10372 10373 10376 10377 10378 10379 10379 10380